Williamsport, PA

9:11 AM EST on January 17, 2018 (GMT -0500)
Williamsport Rgnl

Weather History for KIPT - August, 2013

Change the Weather History Date:

Thursday, August 1, 2013

  Actual Average Record
Temperature  
Mean Temperature 73 °F 73 °F  
Max Temperature 81 °F 83 °F 99 °F (1955)
Min Temperature 64 °F 62 °F 48 °F (1998)
Degree Days  
Heating Degree Days 0 0  
Month to date heating degree days 0 0  
Since 1 June heating degree days 9 41  
Since 1 July heating degree days 0 4  
Cooling Degree Days 8 8  
Month to date cooling degree days 8 8  
Year to date cooling degree days 576 441  
Since 1 June cooling degree days 505 398  
Growing Degree Days 24 (Base 50)    
Moisture  
Dew Point 64 °F    
Average Humidity 74    
Maximum Humidity 93    
Minimum Humidity 54    
Precipitation  
Precipitation 0.01 in 0.13 in 1.15 in (1983)
Month to date precipitation 0.01 0.13  
Year to date precipitation 19.87 23.30  
Sea Level Pressure  
Sea Level Pressure 29.86 in    
Wind  
Wind Speed 3 mph (South)    
Max Wind Speed 15 mph    
Max Gust Speed 23 mph    
Visibility 9 miles    
Events Rain    
T = Trace of Precipitation, MM = Missing Value Source: NWS Daily Summary

Daily Weather History Graph

Daily Weather History Graph

Search for Another Location

Airport or City:

Trip Planner

Search our weather history database for the weather conditions in past years. The results will help you decide how hot, cold, wet, or windy it might be!

Date:

Astronomy

Aug. 01, 2013 Rise Set
Actual Time 6:03 AM EDT 8:24 PM EDT
Civil Twilight 5:32 AM EDT 8:55 PM EDT
Nautical Twilight 4:53 AM EDT 9:33 PM EDT
Astronomical Twilight 4:11 AM EDT 10:15 PM EDT
Moon 1:37 AM EDT (8/1) 4:31 PM EDT (8/1)
Length of Visible Light 15h 22m
Length of Day
14h 20m
Waning Crescent, 23% of the Moon is Illuminated
Aug 1
Waning Crescent
Aug 6
New
Aug 14
First Quarter
Aug 20
Full
Aug 28
Last Quarter

Hourly Weather History & Observations

Time (EDT) Temp. Heat Index Dew Point Humidity Pressure Visibility Wind Dir Wind Speed Gust Speed Precip Events Conditions
12:54 AM 69.1 °F - 62.1 °F 78% 29.96 in 9.0 mi East 8.1 mph - N/A   Clear
1:54 AM 69.1 °F - 62.1 °F 78% 29.94 in 8.0 mi East 5.8 mph - N/A   Scattered Clouds
2:54 AM 69.1 °F - 63.0 °F 81% 29.91 in 8.0 mi Variable 3.5 mph - N/A   Overcast
3:08 AM 69.8 °F - 62.6 °F 78% 29.92 in 9.0 mi Calm Calm - N/A   Overcast
3:54 AM 71.1 °F - 63.0 °F 75% 29.89 in 10.0 mi Calm Calm - N/A   Overcast
4:54 AM 70.0 °F - 63.0 °F 78% 29.88 in 10.0 mi Calm Calm - N/A   Overcast
5:54 AM 70.0 °F - 63.0 °F 78% 29.88 in 10.0 mi Variable 4.6 mph - N/A   Overcast
6:28 AM 69.8 °F - 64.4 °F 83% 29.89 in 5.0 mi South 4.6 mph - 0.00 in Rain Light Rain
6:46 AM 69.8 °F - 64.4 °F 83% 29.89 in 6.0 mi SSE 5.8 mph - 0.00 in Rain Light Rain
6:54 AM 69.1 °F - 64.0 °F 84% 29.88 in 6.0 mi Variable 3.5 mph 16.1 mph 0.00 in Rain Light Rain
7:26 AM 68.0 °F - 64.4 °F 88% 29.89 in 2.0 mi SSW 6.9 mph 18.4 mph 0.01 in Rain Light Rain
7:36 AM 69.8 °F - 64.4 °F 83% 29.89 in 5.0 mi South 5.8 mph 17.3 mph 0.01 in Rain Light Rain
7:54 AM 69.1 °F - 64.9 °F 87% 29.88 in 3.0 mi Calm Calm - 0.01 in Rain Light Rain
8:21 AM 69.8 °F - 64.4 °F 83% 29.88 in 10.0 mi South 3.5 mph - 0.00 in   Overcast
8:54 AM 70.0 °F - 64.9 °F 84% 29.87 in 10.0 mi Calm Calm - 0.00 in   Overcast
9:07 AM 69.8 °F - 64.4 °F 83% 29.88 in 10.0 mi ESE 3.5 mph - N/A   Overcast
9:16 AM 69.8 °F - 64.4 °F 83% 29.88 in 10.0 mi Calm Calm - N/A   Overcast
9:54 AM 70.0 °F - 64.9 °F 84% 29.87 in 10.0 mi Calm Calm - N/A   Overcast
10:17 AM 69.8 °F - 64.4 °F 83% 29.87 in 10.0 mi Calm Calm - N/A   Overcast
10:24 AM 69.8 °F - 64.4 °F 83% 29.87 in 10.0 mi SSE 4.6 mph - N/A   Overcast
10:54 AM 71.1 °F - 64.9 °F 81% 29.84 in 10.0 mi Variable 6.9 mph - N/A   Overcast
11:54 AM 73.0 °F - 64.9 °F 76% 29.84 in 10.0 mi Variable 6.9 mph - N/A   Overcast
12:54 PM 75.0 °F - 64.9 °F 71% 29.83 in 10.0 mi SSE 4.6 mph - N/A   Overcast
1:03 PM 75.2 °F - 64.4 °F 69% 29.83 in 10.0 mi South 4.6 mph - N/A   Overcast
1:54 PM 77.0 °F - 64.0 °F 64% 29.82 in 10.0 mi SW 8.1 mph - 0.00 in   Overcast
2:54 PM 75.0 °F - 64.9 °F 71% 29.82 in 10.0 mi SW 5.8 mph - 0.00 in   Mostly Cloudy
3:54 PM 78.1 °F - 63.0 °F 60% 29.81 in 10.0 mi WSW 10.4 mph - N/A   Mostly Cloudy
4:54 PM 81.0 °F 81.9 °F 62.1 °F 52% 29.79 in 10.0 mi West 3.5 mph - N/A   Scattered Clouds
5:54 PM 78.1 °F - 64.9 °F 64% 29.78 in 10.0 mi South 4.6 mph - N/A   Scattered Clouds
6:54 PM 79.0 °F - 66.0 °F 64% 29.80 in 10.0 mi Calm Calm - N/A   Mostly Cloudy
7:54 PM 75.9 °F - 64.0 °F 67% 29.81 in 10.0 mi Calm Calm - N/A   Scattered Clouds
8:54 PM 73.0 °F - 66.9 °F 81% 29.83 in 10.0 mi East 4.6 mph - N/A   Mostly Cloudy
9:54 PM 71.1 °F - 64.9 °F 81% 29.84 in 10.0 mi Calm Calm - N/A   Clear
10:54 PM 68.0 °F - 64.9 °F 90% 29.84 in 9.0 mi Calm Calm - N/A   Clear
11:54 PM 66.0 °F - 64.0 °F 93% 29.86 in 10.0 mi NW 3.5 mph - N/A   Mostly Cloudy